User: anonymous   Login
Location: Unspecified
(40.7945°N, 111.1337°W)
Time: 06:44:43
(UTC-06:00)
Language:

Cosmos 2058 - Orbit

View from above orbital plane
View from above orbital plane
View from above satellite
View from above satellite

Ground track
Ground track

The orbit data is extracted from the following two-line orbital elements,

1 20465U 90010A   19296.11066612  .00000222  00000-0  16508-4 0  9997
2 20465  82.4875 142.6922 0014051 286.1558  73.8118 14.97919369613753
Epoch (UTC): 23 October 2019 02:39:21
Eccentricity: 0.0014051
inclination: 82.4875°
perigee height: 563 km
apogee height: 583 km
right ascension of ascending node: 142.6922°
argument of perigee: 286.1558°
revolutions per day: 14.97919369
mean anomaly at epoch: 73.8118°
orbit number at epoch: 61375

The dashed part of the orbit path shows where the satellite is in the earth's shadow,  

DLR